Location: Mentone
(34.5413°N, 85.5351°W)
Time: 02:40:56
(UTC-05:00)

A-11 Canister half - Visible Passes

Search period start: 01 November 2014 00:00
Search period end: 10 November 2014 23:00
Orbit: 1525 x 1685 km, 47.3° (Epoch: 30 October)

Date Brightness Start Highest point End Pass type
(mag) Time Alt. Az. Time Alt. Az. Time Alt. Az.
01 Nov 11.2 05:57:11 10° S 06:04:35 24° SE 06:11:47 10° ENE visible
02 Nov 11.2 04:35:58 10° S 04:43:06 23° SE 04:50:03 10° E visible
03 Nov 11.2 04:14:46 10° S 04:21:37 21° SE 04:28:18 10° E visible
04 Nov 11.2 03:53:37 10° SSE 04:00:08 20° SE 04:06:30 10° E visible
05 Nov 11.2 03:32:29 10° SSE 03:38:39 18° SE 03:44:41 10° E visible
05 Nov 9.5 05:32:46 10° SW 05:42:37 71° SE 05:52:08 10° ENE visible
06 Nov 11.2 03:11:25 10° SSE 03:17:10 17° SE 03:22:49 10° E visible
06 Nov 9.5 05:11:15 10° SW 05:21:05 68° SE 05:30:35 10° ENE visible
07 Nov 11.2 02:50:24 10° SSE 02:55:41 16° ESE 03:00:53 10° E visible
07 Nov 9.5 04:49:45 10° SW 04:59:33 65° SE 05:09:03 10° ENE visible
08 Nov 11.2 02:29:28 10° SSE 02:34:13 14° ESE 02:38:53 10° E visible
08 Nov 9.5 04:28:15 10° SW 04:38:01 62° SE 04:47:29 10° ENE visible
09 Nov 11.2 02:08:39 10° SSE 02:12:44 13° ESE 02:16:46 10° E visible
09 Nov 9.5 04:06:46 10° SSW 04:16:30 59° SE 04:25:56 10° ENE visible
10 Nov 11.2 01:48:23 10° SE 01:51:16 12° ESE 01:54:29 10° ESE visible
10 Nov 9.6 03:46:49 16° SSW 03:54:58 56° SE 04:04:22 10° ENE visible
